Location: Central Falls
(41.8900°N, 71.3929°W)
Time: 08:14:23
(UTC+00:00)

Sep Motor Cover - Visible Passes

Search period start: 21 May 2024 00:00
Search period end: 31 May 2024 00:00
Orbit: 838 x 1138 km, 71.0° (Epoch: 20 May)

Date Brightness Start Highest point End Pass type
(mag) Time Alt. Az. Time Alt. Az. Time Alt. Az.
21 May ? 03:48:15 10° N 03:53:16 20° NE 03:58:10 10° E visible
21 May ? 05:34:32 10° NNW 05:41:46 84° ENE 05:44:02 47° SSE visible
21 May ? 07:23:44 10° WNW 07:28:05 18° W 07:28:54 17° WSW visible
22 May ? 04:17:09 10° N 04:23:32 33° NE 04:27:30 19° ESE visible
22 May ? 06:04:16 10° NNW 06:11:11 53° WSW 06:12:23 48° SW visible
23 May ? 03:00:47 10° N 03:04:27 14° NE 03:08:04 10° ENE visible
23 May ? 04:46:23 10° NNW 04:53:29 59° ENE 04:55:55 39° ESE visible
23 May ? 06:34:34 10° NW 06:40:17 27° W 06:40:48 27° WSW visible
24 May ? 03:29:18 10° N 03:34:56 24° NE 03:39:29 13° E visible
24 May ? 05:15:55 10° NNW 05:23:05 78° WSW 05:24:23 60° S visible
24 May ? 07:06:24 10° WNW 07:09:06 12° W 07:09:17 12° W visible
25 May ? 02:14:23 10° NNE 02:15:30 10° NNE 02:16:37 10° NE visible
25 May ? 03:58:21 10° NNW 04:05:04 41° ENE 04:08:01 28° ESE visible
25 May ? 05:45:50 10° NW 05:52:22 40° WSW 05:52:55 40° WSW visible
26 May ? 02:41:37 10° N 02:46:11 17° NE 02:50:38 10° E visible
26 May ? 04:27:42 10° NNW 04:34:52 74° ENE 04:36:36 53° SE visible
26 May ? 06:16:30 10° NW 06:21:21 20° W 06:21:30 20° W visible
27 May ? 03:10:25 10° N 03:16:32 29° NE 03:20:20 18° E visible
27 May ? 04:57:22 10° NNW 05:04:20 60° WSW 05:05:13 56° SW visible
28 May ? 01:54:20 10° NNE 01:57:19 13° NE 02:00:15 10° ENE visible
28 May ? 03:39:35 10° NNW 03:46:32 52° ENE 03:48:59 36° ESE visible
28 May ? 05:27:31 10° NW 05:33:29 31° W 05:33:53 31° WSW visible
29 May ? 02:22:37 10° N 02:27:53 21° NE 02:32:46 11° E visible
29 May ? 04:09:04 10° NNW 04:16:13 87° WSW 04:17:41 59° SSE visible
29 May ? 05:58:49 10° WNW 06:02:21 15° W 06:02:35 15° W visible
30 May ? 02:51:35 10° N 02:58:05 36° NE 03:01:30 23° ESE visible
30 May ? 04:38:53 10° NW 04:45:32 46° WSW 04:46:24 44° SW visible
